Helicity
100 117 134 135 140 136 141 162 210 206 200 180 165 138 133 125 122 117 78 65 73 70 76 74 70 74 89 84 91 97 113 122 120 118 121 92 123 29 23 63 66 71 72
151 144 136 164 162 143 149 159 218 238 230 197 172 150 138 125 127 104 72 61 57 59 66 72 75 77 87 93 107 113 132 132 108 95 44 70 80 29 4 57 68 86 78
163 159 130 161 163 141 144 156 208 232 235 222 189 158 133 119 116 83 65 60 60 61 59 60 74 87 104 110 118 127 129 114 90 81 47 72 55 48 60 77 106 101 94
158 153 88 129 155 152 137 141 192 206 211 204 178 138 121 109 88 71 65 56 63 72 75 77 81 93 103 115 112 101 96 91 82 53 25 36 56 69 68 68 91 94 81
109 106 55 101 122 132 147 122 153 174 180 171 158 132 110 91 80 69 65 62 67 71 73 90 98 113 125 126 117 101 86 85 64 14 49 41 45 54 72 74 96 82 73
97 66 44 82 92 103 116 103 112 130 147 139 138 126 109 93 81 72 69 67 67 77 85 104 120 133 137 123 113 98 105 84 38 33 38 63 45 52 75 91 102 105 95
80 42 36 54 70 81 85 76 72 104 120 119 121 109 106 98 84 75 71 69 74 83 97 110 133 153 137 115 107 102 99 87 41 57 66 70 62 72 101 93 99 93 96
95 54 40 38 42 42 48 47 39 69 93 102 106 98 95 90 78 78 80 76 86 92 96 112 152 164 144 124 100 84 80 70 37 46 50 60 81 82 106 112 101 95 105
45 105 62 45 12 25 24 16 13 35 63 81 96 96 98 87 75 77 89 77 84 94 102 120 152 161 150 104 79 69 67 56 44 27 46 46 71 70 83 84 83 94 127
68 54 88 72 46 12 9 6 -9 11 37 52 71 86 95 89 77 79 98 77 81 92 108 121 156 161 135 94 72 51 50 43 40 38 27 30 53 53 69 64 72 93 83
104 73 66 77 57 38 11 -6 -5 9 29 47 44 58 79 57 59 70 81 88 88 94 114 122 153 141 118 70 56 64 56 48 49 24 44 34 47 42 58 74 72 76 67
107 103 93 86 71 40 18 20 23 24 21 23 31 35 27 28 40 47 67 94 90 96 101 111 134 150 126 64 52 56 47 68 44 29 37 38 45 60 58 79 75 77 58
115 135 100 85 72 64 39 50 83 96 94 59 43 54 44 35 26 32 59 86 91 96 82 93 120 124 106 89 62 48 61 53 51 37 27 62 43 63 69 64 73 62 51
107 114 101 92 102 100 81 78 105 121 108 109 100 96 97 77 55 47 60 93 122 98 91 89 110 122 116 113 89 71 75 75 97 47 44 38 27 64 65 58 71 65 40
86 103 92 116 118 136 120 104 107 122 146 127 156 156 166 130 97 88 83 99 129 125 116 108 114 130 124 114 126 96 102 113 107 143 134 51 14 55 51 53 52 59 44
67 79 150 139 131 130 151 134 140 141 151 172 157 181 184 195 167 155 132 127 135 144 125 123 131 132 126 116 140 112 126 139 110 149 116 61 -19 51 58 47 42 42 55
51 71 83 121 216 263 250 211 193 195 213 204 226 207 201 197 182 202 187 171 159 155 158 144 162 148 137 112 120 123 119 134 112 105 107 91 43 47 66 40 31 39 49
64 57 68 111 159 191 211 240 324 277 243 204 220 227 227 241 208 218 188 175 208 186 178 177 168 182 168 129 112 122 119 116 109 92 96 68 38 37 54 51 39 35 50
105 110 87 69 80 136 190 262 309 335 304 247 210 230 199 215 232 234 209 188 193 197 192 188 189 185 191 152 129 126 120 110 101 120 89 73 59 55 71 82 53 49 60
121 93 98 81 81 110 153 175 254 291 272 290 263 245 211 193 199 217 237 235 259 225 208 205 198 201 178 162 136 146 154 119 114 117 108 125 78 87 74 87 56 52 59
142 132 121 115 97 130 196 215 205 271 332 316 302 239 166 182 170 203 226 241 244 224 220 226 251 209 211 183 221 198 178 137 117 120 117 162 131 95 89 93 76 56 52
183 152 121 127 105 93 155 228 257 231 303 337 303 257 194 149 150 155 155 184 221 212 210 231 269 297 274 269 266 247 173 187 139 110 91 86 88 142 134 110 80 58 43
112 117 111 110 108 117 123 173 204 195 204 339 307 272 208 161 134 121 131 145 169 175 173 214 218 271 304 284 227 293 224 175 233 150 138 105 96 142 100 82 78 69 51
92 90 113 122 97 91 126 152 210 281 309 320 273 259 244 253 275 270 146 156 131 206 161 181 216 229 282 290 262 155 222 227 166 147 127 118 120 123 72 54 79 78 69
111 108 -5 66 84 90 114 137 208 245 269 221 196 185 190 190 287 261 206 99 112 200 211 235 280 248 257 250 265 273 195 231 242 215 144 108 103 92 55 74 105 95 85
83 82 132 51 176 127 148 205 219 179 215 255 197 326 75 162 236 158 232 220 257 273 254 297 273 233 216 217 229 192 213 253 271 225 158 134 107 103 126 101 130 163 175
Wind_Speed
16 21 20 23 24 24 25 28 29 30 29 29 32 33 34 34 35 36 35 36 37 38 39 39 37 35 34 32 28 25 24 24 23 21 16 21 25 25 13 17 22 20 24
25 22 22 21 22 22 23 25 26 28 29 30 32 33 34 34 34 34 35 35 35 35 36 37 36 35 33 29 26 26 25 25 21 20 18 21 25 18 14 19 21 30 34
26 25 21 20 20 21 21 24 25 27 28 30 31 32 33 33 34 34 35 34 34 34 33 32 34 34 33 29 27 27 25 24 23 22 20 20 21 25 15 21 29 37 29
24 21 18 21 23 23 19 22 26 28 29 30 31 31 32 33 33 34 34 34 34 34 33 32 32 32 32 28 26 25 24 25 24 24 22 22 20 24 24 21 26 31 32
27 20 16 20 20 20 21 20 22 25 27 29 30 30 30 31 32 32 34 34 33 33 32 32 32 31 30 26 24 24 25 25 23 22 23 20 20 22 21 22 25 26 28
24 25 21 24 20 19 19 18 18 20 23 25 26 28 29 29 29 30 31 31 31 31 31 31 31 31 31 27 24 24 25 24 21 20 21 19 16 17 18 21 19 21 24
17 18 22 20 17 16 17 16 16 18 20 22 23 24 26 26 26 26 27 28 29 30 31 32 32 31 31 27 24 24 24 23 20 22 22 15 17 14 18 12 15 19 21
9 9 13 17 13 11 12 13 15 17 18 20 21 21 21 22 22 23 23 24 26 28 30 31 32 32 31 27 24 25 25 24 21 22 21 18 13 12 14 16 15 16 20
3 5 8 11 11 8 8 8 13 14 16 17 19 19 18 18 18 18 19 20 23 26 27 29 31 32 31 27 25 24 25 24 22 20 22 18 15 15 12 13 14 13 17
13 9 2 4 5 5 5 5 7 10 11 13 15 15 15 16 15 14 15 16 19 22 24 27 29 31 30 26 24 25 25 24 20 19 20 16 14 13 15 12 14 13 15
17 15 10 5 3 1 4 6 9 7 6 5 7 9 11 12 12 11 10 13 15 18 20 23 27 29 29 26 23 22 23 19 19 17 13 17 16 16 19 11 9 12 13
21 18 15 11 7 4 1 4 8 5 1 1 0 2 4 6 7 7 8 10 12 14 16 19 23 26 28 25 23 21 17 19 17 17 10 11 14 17 17 17 10 10 10
26 22 18 15 12 9 7 4 8 5 8 8 4 2 1 3 4 4 6 8 9 10 11 14 19 22 23 23 20 19 16 15 16 15 11 1 8 13 13 15 11 8 8
33 30 24 21 17 16 12 10 9 9 8 8 8 7 7 7 5 4 3 5 6 8 7 8 13 16 19 20 18 16 14 14 13 12 10 10 4 9 15 16 11 7 7
36 34 33 29 26 23 21 17 14 14 13 11 11 11 10 10 10 9 8 8 8 9 6 4 6 10 14 15 14 12 14 14 14 13 15 21 21 9 11 12 8 6 5
37 41 38 36 35 32 29 27 23 24 23 20 18 17 16 15 15 15 13 13 13 11 8 6 2 4 7 9 11 10 11 11 10 12 17 44 10 7 6 10 7 5 4
36 38 40 41 41 41 39 37 32 30 29 28 27 25 22 21 19 20 19 18 17 16 12 12 10 8 3 4 7 8 9 10 9 13 12 33 48 10 2 5 8 6 3
51 45 46 43 44 47 47 47 41 40 38 35 31 30 29 26 24 26 27 26 23 22 19 15 15 14 8 2 2 5 7 6 5 9 12 24 50 9 4 3 10 7 4
58 54 50 44 43 44 47 50 49 49 48 44 39 38 35 31 28 26 28 30 30 28 25 21 21 19 16 11 5 3 9 6 4 7 4 24 33 12 9 8 19 14 9
67 67 68 59 52 48 47 49 50 50 50 47 46 45 42 41 38 35 36 36 34 37 34 27 27 27 25 19 12 13 16 14 11 9 14 20 36 32 15 13 27 23 11
66 69 75 76 65 55 52 52 55 56 53 52 50 45 44 47 49 45 41 38 37 38 39 34 32 32 31 25 24 28 26 24 17 17 10 20 33 35 30 18 22 29 22
79 80 82 81 76 63 60 58 58 61 58 55 51 50 44 46 44 49 45 41 38 41 41 36 35 40 36 24 26 30 23 34 31 20 14 11 27 31 33 24 16 28 30
88 86 87 86 82 70 55 57 56 56 57 57 55 52 48 45 41 52 49 47 41 40 43 37 36 36 36 31 24 31 24 18 33 27 17 16 12 23 28 28 23 23 24
98 90 86 82 78 68 51 50 49 52 58 58 56 51 49 48 48 48 53 51 53 48 51 40 37 38 39 33 29 29 38 23 24 36 29 17 18 17 28 25 23 23 20
102 96 80 75 72 60 52 47 48 49 49 47 50 56 48 46 43 41 40 59 54 56 56 44 39 42 43 38 33 31 27 30 31 38 36 27 14 15 20 29 30 27 22
95 79 71 62 57 50 41 41 41 43 42 41 45 46 61 55 46 46 44 48 46 53 53 46 44 47 47 43 39 36 34 29 26 32 36 28 18 21 21 32 33 33 30
Wind_Direction
100 105 101 98 95 86 84 87 83 82 80 87 97 100 99 95 93 89 86 85 84 85 80 82 82 84 81 71 60 49 43 49 50 46 16 354 355 343 339 41 53 50 59
105 107 110 103 100 91 87 86 81 79 82 90 99 100 99 97 92 90 88 84 81 81 80 79 80 82 80 70 55 53 48 53 38 40 32 36 44 16 296 43 49 69 72
112 115 113 107 101 96 90 91 83 85 87 94 95 97 97 96 94 93 90 84 80 78 79 78 79 78 76 63 55 56 53 51 48 22 3 19 30 61 31 54 70 77 65
109 108 108 110 108 104 92 94 94 94 93 97 99 100 98 98 96 94 91 88 84 79 77 74 77 81 79 66 56 52 53 56 45 55 34 31 36 60 65 59 64 67 66
116 113 110 114 110 106 99 98 93 93 94 98 100 99 100 99 96 94 95 91 87 83 79 76 76 79 80 65 53 54 59 56 49 49 48 37 36 59 65 62 57 55 55
118 123 122 123 116 110 105 99 89 90 91 95 95 99 100 98 96 96 93 90 86 81 78 76 77 81 81 71 60 59 60 57 45 36 43 43 49 58 56 58 43 42 45
117 118 124 120 107 105 107 101 97 96 94 96 94 96 98 98 97 94 88 85 82 78 75 78 80 83 85 76 64 66 64 63 46 45 47 22 59 49 52 23 31 41 44
122 104 111 119 105 95 101 102 105 104 99 97 95 95 93 95 95 91 85 81 75 76 76 79 83 85 86 76 67 73 72 66 50 46 47 40 37 37 48 54 46 42 43
277 125 115 120 115 94 95 102 114 110 106 102 100 98 94 96 95 88 82 80 75 76 77 80 84 87 86 81 77 78 78 76 61 45 55 40 56 60 52 50 58 42 33
283 289 215 142 118 94 100 110 121 118 111 107 103 100 98 98 96 87 77 76 78 75 77 81 86 92 92 83 84 88 83 75 58 51 65 31 52 51 64 68 60 40 30
269 280 281 274 279 96 101 121 134 130 119 107 95 94 94 87 93 86 69 70 78 75 77 84 89 98 97 86 85 81 87 60 50 52 40 78 79 82 93 69 12 9 23
249 262 268 265 260 264 176 140 149 152 207 274 96 93 67 65 80 75 56 61 68 73 77 84 92 95 99 91 79 81 46 67 66 64 9 81 82 90 87 81 43 28 15
255 258 252 254 250 234 227 194 166 243 279 286 258 257 293 355 4 14 10 24 31 54 60 78 90 96 104 95 87 87 67 63 15 33 345 357 96 80 72 74 65 19 358
257 258 254 249 246 247 257 250 210 215 231 232 240 242 264 282 284 295 315 341 357 12 33 68 89 93 101 98 94 88 63 65 41 51 5 294 94 80 86 81 63 26 332
250 254 257 255 254 253 253 255 240 241 238 235 228 220 232 252 261 270 277 291 307 332 353 24 68 92 98 97 87 78 87 37 59 52 341 277 146 97 92 81 41 9 356
265 256 249 248 249 254 257 260 257 263 266 261 256 246 231 243 247 259 264 269 279 295 310 314 342 68 94 88 84 63 67 68 64 50 337 254 173 122 85 85 28 339 14
281 271 262 256 247 244 245 256 255 256 258 259 261 253 246 247 246 253 256 261 265 276 286 295 300 318 350 90 96 49 50 80 87 44 340 272 257 276 313 92 342 322 8
288 281 276 267 259 255 255 257 250 257 259 261 258 260 250 247 254 263 265 263 261 267 273 275 280 294 293 278 70 38 29 65 81 31 33 282 255 264 252 293 308 306 311
291 289 286 276 267 258 255 254 253 255 258 261 262 263 260 252 254 257 263 267 266 263 263 266 275 280 285 285 294 11 347 24 37 345 22 295 278 260 259 257 283 289 283
287 286 286 284 278 271 266 259 259 255 252 254 257 262 262 261 258 262 270 269 263 261 262 260 267 277 283 285 290 306 317 328 337 333 310 308 281 273 260 267 275 282 275
295 291 287 284 280 274 266 260 255 251 247 250 253 259 264 262 263 264 268 267 264 257 257 255 266 270 275 277 289 298 305 308 315 318 308 293 289 272 269 265 275 277 276
296 293 288 285 282 277 271 263 260 252 253 253 254 258 262 264 261 263 266 269 263 262 259 255 254 269 273 253 274 286 297 296 300 310 305 293 291 276 260 259 258 271 274
296 295 292 285 281 278 268 268 266 259 259 253 248 253 254 259 258 265 266 270 267 263 262 258 253 255 260 256 239 284 296 288 299 306 299 286 273 283 258 256 256 261 265
296 297 293 288 284 281 269 258 252 248 250 252 253 249 246 245 255 271 268 265 264 265 264 263 260 258 260 255 250 224 286 295 300 303 310 284 280 277 258 243 244 251 248
296 294 294 290 287 280 268 256 255 251 255 260 261 259 253 252 256 258 264 271 263 268 266 265 263 261 259 259 244 248 245 279 289 294 302 310 286 265 256 252 252 250 242
296 295 296 292 293 284 273 263 251 246 248 252 261 261 271 262 263 261 269 260 262 268 266 265 263 263 261 260 257 251 234 248 255 280 290 300 300 289 260 266 252 253 256